Overview Statistics Trail Chart Weather Telemetry Raw packets
 

This is the latest recevied weather packets stored in our database for station/object ZL1CTS-13. If no packets are shown the sender has not sent any weather packets the latest 10 day(s).

<< 91 92 93 94 95 96 97 >>
Time Temp. Humidity Pressure Rain* Wind** Luminosity Snow
1788154803 13.33° C 82% 997.7 hPa 0 mm - - -
1788154503 13.89° C 82% 997.5 hPa 0.25 mm - - -
1788154205 14.44° C 81% 997.4 hPa 0.25 mm - - -
1788154204 14.44° C 81% 997.4 hPa 0.25 mm - - -
1788153904 14.44° C 81% 997.2 hPa 0.25 mm - - -
1788153604 14.44° C 82% 997 hPa 0.25 mm - - -
1788153303 15° C 83% 997 hPa 0.25 mm - - -
1788153004 15° C 85% 996.9 hPa 0.25 mm - - -
1788152704 15° C 85% 997 hPa 0.25 mm - - -
1788152405 15° C 84% 997.1 hPa 0.25 mm - - -
1788152404 15° C 84% 997.1 hPa 0.25 mm - - -
1788152104 15° C 84% 997 hPa 1.02 mm - - -
1788151804 15° C 83% 997.2 hPa 1.02 mm - - -
1788151504 15.56° C 85% 997 hPa 1.02 mm - - -
1788151503 15.56° C 85% 997 hPa 1.02 mm - - -
1788151205 15° C 85% 997.1 hPa 1.02 mm - - -
1788150904 13.89° C 84% 997.3 hPa 0.76 mm - - -
1788150606 13.89° C 83% 997 hPa 0.76 mm - - -
1788150603 13.89° C 83% 997 hPa 0.76 mm - - -
1788150304 14.44° C 83% 997.1 hPa 0.76 mm - - -
1788150006 15.56° C 86% 997 hPa 0.76 mm - - -
1788149705 15° C 91% 997.1 hPa 0.76 mm - - -
1788149704 15° C 91% 997.1 hPa 0.76 mm - - -
1788149406 15° C 93% 996.9 hPa 0.76 mm - - -
1788149104 14.44° C 93% 996.9 hPa 0.76 mm - - -

* Rain latest hour (hover to see other rain measurements)
** Current wind speed in m/s (hover to see current wind gust speed)